Weather reports worldwide

Advertisment
Capri, Italy (16294): temperature & dewpoint: 16.02.2019 22:00:00 - 22.02.2019 22:00:00 (CET)Capri, Italy (16294): wind speed: 16.02.2019 22:00:00 - 22.02.2019 22:00:00 (CET)Capri, Italy (16294): wind direction: 16.02.2019 22:00:00 - 22.02.2019 22:00:00 (CET)Capri, Italy (16294): reduced air pressure: 16.02.2019 22:00:00 - 22.02.2019 22:00:00 (CET)Capri, Italy (16294): visibility: 16.02.2019 22:00:00 - 22.02.2019 22:00:00 (CET)
Date & Time tt [°C] td [°C] ff [km/h] ff [kn] dd ppp [hPa] vv [km]
22.02.2019 22:00:00 11,4 6,9 5 3 WSW 1020,6 10
22.02.2019 21:00:00 11,0 10,0 2 1 - - 5
22.02.2019 20:00:00 11,0 9,0 4 2 ENE - 8
22.02.2019 19:00:00 11,0 9,3 4 2 ENE 1020,6 4,0
22.02.2019 18:00:00 11,0 9,0 4 2 NNW - 8
22.02.2019 17:00:00 12,0 9,0 4 2 W - 8
22.02.2019 16:00:00 12,8 8,3 4 2 W 1021,2 4,0
22.02.2019 15:00:00 12,0 9,0 4 2 W - 7
22.02.2019 14:00:00 13,0 9,0 8 4 W - 7
22.02.2019 13:00:00 13,0 9,3 8 4 WSW 1022,3 4,0
22.02.2019 12:00:00 12,0 9,0 4 2 - - 6
22.02.2019 11:00:00 12,0 9,0 2 1 - - 8
22.02.2019 10:00:00 11,2 9,1 0 0 N 1024,8 10
22.02.2019 09:00:00 11,0 10,0 0 0 N - 10
22.02.2019 08:00:00 10,0 9,0 0 0 N - 10
22.02.2019 07:00:00 9,2 8,1 0 0 N 1024,6 4,0
22.02.2019 06:00:00 9,0 8,0 0 0 N - 8
22.02.2019 05:00:00 9,0 7,0 0 0 N - 10
22.02.2019 04:00:00 9,4 7,0 0 0 N 1025,9 10
22.02.2019 03:00:00 9,0 7,0 0 0 N - 10
22.02.2019 02:00:00 9,0 8,0 0 0 N - 10
22.02.2019 01:00:00 9,4 8,2 0 0 N 1026,7 10
22.02.2019 00:00:00 9,0 8,0 5 3 N - 10
21.02.2019 23:00:00 10,0 8,0 4 2 - - 10
21.02.2019 22:00:00 10,0 7,9 4 2 N 1026,7 10
21.02.2019 21:00:00 11,0 8,0 0 0 N - 10
21.02.2019 20:00:00 11,0 8,0 0 0 N - 10
21.02.2019 19:00:00 11,0 7,9 0 0 N 1026,7 10
21.02.2019 18:00:00 - - - - - - -
21.02.2019 17:00:00 13,0 8,0 4 2 WSW - 10
21.02.2019 16:00:00 13,0 7,7 4 2 WSW 1026,3 10
21.02.2019 15:00:00 13,0 8,0 4 2 WSW - 10
21.02.2019 14:00:00 13,0 8,0 5 3 WSW - 10
21.02.2019 13:00:00 13,4 9,1 0 0 N 1026,7 10
21.02.2019 12:00:00 11,0 8,0 0 0 N - 10
21.02.2019 11:00:00 11,0 7,0 0 0 N - 10
21.02.2019 10:00:00 10,2 8,0 0 0 N 1026,7 10
21.02.2019 09:00:00 10,0 8,0 0 0 N - 10
21.02.2019 08:00:00 8,0 7,0 0 0 N - 10
21.02.2019 07:00:00 8,6 7,1 0 0 N 1025,6 10
21.02.2019 06:00:00 9,0 7,0 0 0 N - 10
21.02.2019 05:00:00 - - - - - - -
21.02.2019 04:00:00 8,8 6,3 0 0 N 1025,0 20
21.02.2019 03:00:00 9,0 6,0 8 4 NE - 10
21.02.2019 02:00:00 9,0 6,0 9 5 NE - 10
21.02.2019 01:00:00 9,2 5,6 9 5 NE 1024,7 20
21.02.2019 00:00:00 10,0 7,0 9 5 ENE - 10
20.02.2019 23:00:00 10,0 7,0 9 5 NE - 10
20.02.2019 22:00:00 10,0 6,7 15 8 E 1024,7 20
20.02.2019 21:00:00 10,0 6,0 0 0 N - 10
20.02.2019 20:00:00 10,0 6,0 8 4 NNE - 10
20.02.2019 19:00:00 10,0 4,8 0 0 N 1023,8 20
20.02.2019 18:00:00 11,0 5,0 9 5 NE - 10
20.02.2019 17:00:00 12,0 6,0 0 0 N - 10
20.02.2019 16:00:00 12,0 5,6 9 5 SW 1023,6 20
20.02.2019 15:00:00 12,0 6,0 9 5 SW - 10
20.02.2019 14:00:00 12,0 6,0 15 8 SW - 10
20.02.2019 13:00:00 12,0 5,6 9 5 ENE 1024,1 20
20.02.2019 12:00:00 12,0 6,0 9 5 NE - 10
20.02.2019 11:00:00 11,0 5,0 5 3 NE - 10
20.02.2019 10:00:00 10,2 2,6 8 4 NE 1023,8 10
20.02.2019 09:00:00 10,0 4,0 0 0 N - 10
20.02.2019 08:00:00 10,0 5,0 0 0 N - 10
20.02.2019 07:00:00 9,8 4,6 0 0 N 1022,9 20
20.02.2019 06:00:00 10,0 5,0 4 2 SW - 10
20.02.2019 05:00:00 10,0 5,0 0 0 N - 10
20.02.2019 04:00:00 10,0 5,2 4 2 SW 1023,2 20
20.02.2019 03:00:00 10,0 5,0 4 2 W - 10
20.02.2019 02:00:00 10,0 5,0 0 0 N - 10
20.02.2019 01:00:00 10,2 5,0 5 3 SW 1022,9 20
20.02.2019 00:00:00 10,0 6,0 4 2 SW - 10
19.02.2019 23:00:00 10,0 6,0 4 2 SW - 10
19.02.2019 22:00:00 10,0 5,4 4 2 SW 1022,6 20
19.02.2019 21:00:00 10,0 5,0 4 2 W - 10
19.02.2019 20:00:00 11,0 6,0 0 0 N - 10
19.02.2019 19:00:00 10,8 6,0 5 3 W 1022,5 20
19.02.2019 18:00:00 11,0 6,0 4 2 W - 10
19.02.2019 17:00:00 11,0 2,0 4 2 W - 10
19.02.2019 16:00:00 11,2 2,3 4 2 W 1023,5 20
19.02.2019 15:00:00 11,0 5,0 4 2 W - 10
19.02.2019 14:00:00 11,0 5,0 4 2 W - 10
19.02.2019 13:00:00 11,2 5,5 5 3 W 1024,1 20
19.02.2019 12:00:00 11,0 6,0 5 3 W - 10
19.02.2019 11:00:00 11,0 6,0 5 3 W - 10
19.02.2019 10:00:00 10,6 5,8 4 2 W 1023,8 10
19.02.2019 09:00:00 10,0 6,0 5 3 W - 10
19.02.2019 08:00:00 10,0 6,0 4 2 W - 10
19.02.2019 07:00:00 10,4 5,6 5 3 WNW 1023,7 10
19.02.2019 06:00:00 10,0 5,0 0 0 N - 10
19.02.2019 05:00:00 - - - - - - -
19.02.2019 04:00:00 10,4 5,6 5 3 W 1024,1 10
19.02.2019 03:00:00 - - - - - - -
19.02.2019 02:00:00 - - - - - - -
19.02.2019 01:00:00 10,8 6,9 0 0 N 1024,7 10
19.02.2019 00:00:00 11,0 7,0 0 0 N - 10
18.02.2019 23:00:00 10,0 7,0 4 2 W - 10
18.02.2019 22:00:00 10,4 6,5 0 0 N 1024,6 10
18.02.2019 21:00:00 11,0 7,0 5 3 W - 10
18.02.2019 20:00:00 11,0 7,0 0 0 N - 10
18.02.2019 19:00:00 10,8 6,9 4 2 W 1024,4 10
18.02.2019 18:00:00 12,0 8,0 4 2 W - 10
18.02.2019 17:00:00 13,0 8,0 5 3 W - 10
18.02.2019 16:00:00 12,8 8,5 0 0 N 1024,7 10
18.02.2019 15:00:00 12,0 9,0 5 3 W - 10
18.02.2019 14:00:00 12,0 9,0 5 3 W - 10
18.02.2019 13:00:00 12,0 8,1 4 2 W 1026,4 10
18.02.2019 12:00:00 12,0 8,0 5 3 W - 10
18.02.2019 11:00:00 12,0 8,0 5 3 W - 10
18.02.2019 10:00:00 12,0 7,7 0 0 N 1026,4 10
18.02.2019 09:00:00 11,0 8,0 4 2 - - 10
18.02.2019 08:00:00 11,0 7,0 2 1 - - 10
18.02.2019 07:00:00 11,0 6,4 2 1 N 1026,6 10
18.02.2019 06:00:00 10,0 7,0 4 2 - - 10
18.02.2019 05:00:00 10,0 7,0 4 2 - - 10
18.02.2019 04:00:00 10,2 6,9 2 1 - 1027,7 10
18.02.2019 03:00:00 11,0 7,0 2 1 - - 10
18.02.2019 02:00:00 11,0 7,0 2 1 - - 10
18.02.2019 01:00:00 10,6 7,5 4 2 N 1027,6 10
18.02.2019 00:00:00 11,0 8,0 2 1 - - 10
17.02.2019 23:00:00 11,0 7,0 4 2 - - 10
17.02.2019 22:00:00 11,0 8,1 2 1 N 1027,6 10
17.02.2019 21:00:00 11,0 8,0 4 2 NNW - 10
17.02.2019 20:00:00 11,0 8,0 5 3 W - 10
17.02.2019 19:00:00 11,2 8,4 4 2 W 1027,6 10
17.02.2019 18:00:00 11,0 8,0 5 3 W - 10
17.02.2019 17:00:00 13,0 9,0 4 2 W - 10
17.02.2019 16:00:00 12,6 7,9 4 2 NW 1027,5 10
17.02.2019 15:00:00 12,0 8,0 5 3 NNW - 10
17.02.2019 14:00:00 12,0 7,0 4 2 W - 10
17.02.2019 13:00:00 12,2 7,9 5 3 W 1028,6 10
17.02.2019 12:00:00 12,0 8,0 4 2 WSW - 10
17.02.2019 11:00:00 11,0 7,0 2 1 - - 10
17.02.2019 10:00:00 10,6 6,9 2 1 N 1029,9 10
17.02.2019 09:00:00 9,0 5,0 5 3 NE - 10
17.02.2019 08:00:00 9,0 6,0 4 2 NE - 10
17.02.2019 07:00:00 9,0 5,9 9 5 NE 1028,8 20
17.02.2019 06:00:00 9,0 4,0 8 4 NE - 10
17.02.2019 05:00:00 10,0 4,0 9 5 NE - 10
17.02.2019 04:00:00 10,0 3,7 9 5 NE 1028,7 20
17.02.2019 03:00:00 10,0 4,0 11 6 NE - 10
17.02.2019 02:00:00 10,0 6,0 9 5 NE - 10
17.02.2019 01:00:00 10,0 6,2 9 5 NE 1028,7 20
17.02.2019 00:00:00 10,0 5,0 4 2 NE - 10
16.02.2019 23:00:00 11,0 7,0 9 5 NE - 10
16.02.2019 22:00:00 10,8 7,5 4 2 N 1028,7 20

tt = temperature
td = dewpoint
ff = wind speed
dd = wind direction
ppp = reduced air pressure
vv = visibility

Next stations